Crossville, TN

8:33 PM CDT on September 30, 2016 (GMT -0500)
Crossville Memorial-Whitson

Weather History for KCSV - March, 2014

Change the Weather History Date:

Saturday, March 1, 2014

  Actual Average Record
Temperature  
Mean Temperature 46 °F 43 °F  
Max Temperature 54 °F 52 °F 72 °F (1976)
Min Temperature 38 °F 33 °F 12 °F (1960)
Degree Days  
Heating Degree Days 19    
Month to date heating degree days 19  
Since 1 July heating degree days 3560  
Cooling Degree Days 0    
Month to date cooling degree days 0  
Year to date cooling degree days 0  
Moisture  
Dew Point 33 °F    
Average Humidity 56    
Maximum Humidity 66    
Minimum Humidity 46    
Precipitation  
Precipitation T in 0.16 in 1.38 in (1994)
Month to date precipitation T 0.16  
Year to date precipitation 5.66 9.38  
Sea Level Pressure  
Sea Level Pressure 30.17 in    
Wind  
Wind Speed 6 mph (South)    
Max Wind Speed 14 mph    
Max Gust Speed 20 mph    
Visibility 10 miles    
Events Rain    
T = Trace of Precipitation, MM = Missing Value Source: NWS Daily Summary

Daily Weather History Graph

Daily Weather History Graph

Search for Another Location

Airport or City:

Trip Planner

Search our weather history database for the weather conditions in past years. The results will help you decide how hot, cold, wet, or windy it might be!

Date:

Astronomy

Mar. 01, 2014 Rise Set
Actual Time 6:10 AM CST 5:35 PM CST
Civil Twilight 5:44 AM CST 6:01 PM CST
Nautical Twilight 5:15 AM CST 6:30 PM CST
Astronomical Twilight 4:45 AM CST 7:00 PM CST
Moon 6:05 AM CST 6:19 PM CST
Length of Visible Light 12h 16m
Length of Day
11h 24m
New Moon, 0% of the Moon is Illuminated
Mar 1
New Moon
Mar 8
First Quarter
Mar 16
Full
Mar 23
Last Quarter
Mar 30
New

Hourly Weather History & Observations

Time (CST) Temp. Windchill Dew Point Humidity Pressure Visibility Wind Dir Wind Speed Gust Speed Precip Events Conditions
12:53 AM 39.9 °F 36.7 °F 28.9 °F 65% 30.15 in 9.0 mi Variable 4.6 mph - 0.00 in Rain Light Rain
1:53 AM 39.0 °F 34.8 °F 28.9 °F 67% 30.14 in 10.0 mi South 5.8 mph - 0.00 in   Overcast
2:53 AM 39.9 °F 35.8 °F 28.9 °F 65% 30.14 in 10.0 mi South 5.8 mph - N/A   Overcast
3:53 AM 41.0 °F 36.4 °F 28.9 °F 62% 30.15 in 10.0 mi Variable 6.9 mph - N/A   Overcast
4:53 AM 41.0 °F 38.0 °F 28.9 °F 62% 30.16 in 10.0 mi South 4.6 mph - N/A   Overcast
5:53 AM 39.9 °F 35.8 °F 28.9 °F 65% 30.16 in 10.0 mi South 5.8 mph - N/A   Overcast
6:53 AM 41.0 °F 37.1 °F 28.0 °F 60% 30.18 in 10.0 mi Variable 5.8 mph - N/A   Overcast
7:53 AM 43.0 °F 38.8 °F 28.0 °F 56% 30.20 in 10.0 mi Variable 6.9 mph - N/A   Overcast
8:53 AM 46.0 °F 41.9 °F 28.0 °F 50% 30.22 in 10.0 mi South 8.1 mph 16.1 mph N/A   Overcast
9:53 AM 46.9 °F - 28.9 °F 50% 30.22 in 10.0 mi South 9.2 mph 18.4 mph N/A   Overcast
10:53 AM 48.9 °F - 30.0 °F 48% 30.22 in 10.0 mi South 9.2 mph 16.1 mph N/A   Overcast
11:53 AM 48.9 °F - 30.0 °F 48% 30.21 in 10.0 mi South 9.2 mph - N/A   Overcast
12:09 PM 50.0 °F - 30.2 °F 47% 30.19 in 10.0 mi Variable 6.9 mph - N/A   Overcast
12:53 PM 51.1 °F - 32.0 °F 48% 30.17 in 10.0 mi South 5.8 mph - N/A   Overcast
1:23 PM 51.8 °F - 33.8 °F 50% 30.15 in 10.0 mi South 8.1 mph - N/A   Overcast
1:53 PM 53.1 °F - 34.0 °F 48% 30.16 in 10.0 mi Variable 6.9 mph - N/A   Overcast
2:53 PM 53.1 °F - 36.0 °F 52% 30.15 in 10.0 mi SSE 5.8 mph - N/A   Mostly Cloudy
3:53 PM 52.0 °F - 37.0 °F 57% 30.16 in 10.0 mi Variable 5.8 mph - N/A   Overcast
4:17 PM 51.8 °F - 37.4 °F 58% 30.15 in 10.0 mi South 8.1 mph - N/A   Overcast
4:53 PM 51.1 °F - 37.0 °F 59% 30.15 in 10.0 mi South 6.9 mph - N/A   Overcast
5:53 PM 48.9 °F - 37.0 °F 64% 30.17 in 10.0 mi South 5.8 mph - N/A   Overcast
6:53 PM 48.0 °F - 37.0 °F 66% 30.19 in 10.0 mi Variable 5.8 mph - N/A   Overcast
7:53 PM 48.0 °F - 37.0 °F 66% 30.20 in 10.0 mi South 3.5 mph - N/A   Overcast
8:53 PM 48.0 °F - 37.0 °F 66% 30.19 in 10.0 mi Variable 5.8 mph - N/A   Overcast
9:53 PM 48.0 °F - 37.0 °F 66% 30.18 in 10.0 mi Calm Calm - N/A   Overcast
10:53 PM 48.9 °F - 37.9 °F 66% 30.17 in 10.0 mi South 3.5 mph - N/A   Overcast
11:53 PM 50.0 °F - 37.9 °F 63% 30.15 in 10.0 mi South 5.8 mph - N/A   Overcast